Location: Gro�sch�nbrunn
(49.5760°N, 11.8868°E)
Time: 03:51:45
(UTC+00:00)

Cosmos 2082 Rocket - Pass Details

Date: 18 September 2020
Orbit: 834 x 852 km, 71.0° (Epoch: 18 October)

Event Time Altitude Azimuth Distance (km) Brightness Sun altitude
Rises 20:39:15 0° 332° (NNW) 3,394 6.4 -30.0°
Reaches altitude 10° 20:41:44 10° 336° (NNW) 2,456 5.4 -30.3°
Enters shadow 20:46:16 52° 11° (N) 1,037 2.7 -30.8°
